"Pseudo-MPEC" for C00HR65

Created 2020 Jan 15 15:07:02 UT using Find_Orb

Click here for an explanation of pseudo-MPECs

 
 Astrometry: 
     C00HR65  C2019 12 30$jxN:\!Q*@Q%:Y?_GF1G9sw9QL;Upn[fJcAstrometry',eXj_/JV00
     C00HR65  C2019 12 30yBC9iD9TkRMBEXo;3?/H,Y23?wkc\Tg6P1OsUBredacted;MuTC@V00
     C00HR65  C2019 12 302l5y1DG=WY*PVunm)[)YF2,!TYVO3yJyE9xV^FNo%X6.n]k)@%PRV00
     C00HR65  C2019 12 301+,ka6X::29S0Jk0x;j0o==dF]iP5\uEclickwe$l%j+3/X1-s!rV00
     C00HR65  C2019 12 30h[j+xT,5C\JxryChereJe!pjk!WF16Wrc2jRG[7E5CZ3Z^1,].VdV00
     C00HR65  C2019 12 30LG/($Umnf?Xx0dEE!D4yXGYp2?.uv0_forWn*6$Q*jqbC[LB(gn'V00
     C00HR65  C2019 12 30yp:J\YXW/hp2?p6C@gs]0./Sexplanationh7t\rMRfw5FUF/x=uV00
     C00HR65  C2019 12 30R6FhYHbuE1)UdqF8-se`_cO_ruopljH(6j;8S3RMakg.)u'n[@WdV00

Station data:
(V00) Kitt Peak-Bok  (N31.963127 W111.600190)  US/Arizona.

Orbital elements:  C00HR65
   Perihelion 2020 Jan 7.809649 TT = 19:25:53 (JD 2458856.309649)
Epoch 2019 Dec 30.0 TT = JDT 2458847.5   Earth MOID: 0.0321   AutoNEOCP
M 352.03688285                      (J2000 ecliptic)
n   0.90390854     Peri.   19.17298
a   1.05938313     Node    87.42217
e   0.0416334      Incl.    0.49867
P   1.09/398.26d   H   29.6     G   0.15   q 1.01527735  Q 1.10348891
From 8 observations 2019 Dec. 30 (4.1 hr); mean residual 0".54
Residuals in arcseconds: 
191230 V00  .81+  .89+    191230 V00  .81-  1.0-    191230 V00  .20-  .06+    
191230 V00  .08+  .34+    191230 V00  .83+  .29+    191230 V00  .19-  .46-    
191230 V00  .16-  .26-    191230 V00  .35-  .17+    

Ephemerides (geocentric):
Date (UTC) HH   RA              Dec         delta   r     elong  mag
---- -- -- --  -------------   -----------  ------ ------ -----  ---
2020 01 15 15  07 00 44.240   +29 47 36.65  .03281 1.0155 166.6 23.0
2020 01 15 16  07 00 43.712   +29 48 08.04  .03282 1.0155 166.6 23.0
2020 01 15 17  07 00 43.187   +29 48 39.38  .03282 1.0155 166.5 23.0
2020 01 15 18  07 00 42.665   +29 49 10.66  .03283 1.0155 166.5 23.0
2020 01 15 19  07 00 42.145   +29 49 41.89  .03284 1.0155 166.4 23.0
2020 01 15 20  07 00 41.629   +29 50 13.06  .03284 1.0155 166.4 23.0
2020 01 15 21  07 00 41.116   +29 50 44.18  .03285 1.0155 166.4 23.0
2020 01 15 22  07 00 40.606   +29 51 15.24  .03286 1.0155 166.3 23.0
2020 01 15 23  07 00 40.098   +29 51 46.25  .03286 1.0156 166.3 23.0
2020 01 16 00  07 00 39.594   +29 52 17.21  .03287 1.0156 166.2 23.0
2020 01 16 01  07 00 39.093   +29 52 48.10  .03288 1.0156 166.2 23.0
2020 01 16 02  07 00 38.595   +29 53 18.95  .03288 1.0156 166.1 23.0
2020 01 16 03  07 00 38.101   +29 53 49.74  .03289 1.0156 166.1 23.0
2020 01 16 04  07 00 37.609   +29 54 20.47  .03290 1.0156 166.1 23.0
2020 01 16 05  07 00 37.121   +29 54 51.15  .03290 1.0156 166.0 23.0
2020 01 16 06  07 00 36.635   +29 55 21.77  .03291 1.0156 166.0 23.1
2020 01 16 07  07 00 36.153   +29 55 52.33  .03292 1.0156 165.9 23.1
2020 01 16 08  07 00 35.674   +29 56 22.84  .03292 1.0156 165.9 23.1
2020 01 16 09  07 00 35.199   +29 56 53.30  .03293 1.0156 165.8 23.1
2020 01 16 10  07 00 34.726   +29 57 23.70  .03294 1.0156 165.8 23.1
2020 01 16 11  07 00 34.257   +29 57 54.04  .03294 1.0156 165.8 23.1
2020 01 16 12  07 00 33.791   +29 58 24.32  .03295 1.0156 165.7 23.1
2020 01 16 13  07 00 33.328   +29 58 54.55  .03296 1.0156 165.7 23.1
2020 01 16 14  07 00 32.869   +29 59 24.73  .03296 1.0156 165.6 23.1
2020 01 16 15  07 00 32.413   +29 59 54.84  .03297 1.0156 165.6 23.1
2020 01 16 16  07 00 31.960   +30 00 24.90  .03298 1.0156 165.5 23.1
2020 01 16 17  07 00 31.511   +30 00 54.90  .03299 1.0156 165.5 23.1
2020 01 16 18  07 00 31.065   +30 01 24.85  .03299 1.0156 165.5 23.1
2020 01 16 19  07 00 30.623   +30 01 54.74  .03300 1.0156 165.4 23.1
2020 01 16 20  07 00 30.184   +30 02 24.57  .03301 1.0156 165.4 23.1
2020 01 16 21  07 00 29.748   +30 02 54.34  .03301 1.0156 165.3 23.1
2020 01 16 22  07 00 29.316   +30 03 24.06  .03302 1.0156 165.3 23.1
2020 01 16 23  07 00 28.887   +30 03 53.72  .03303 1.0156 165.2 23.1
2020 01 17 00  07 00 28.462   +30 04 23.32  .03304 1.0156 165.2 23.1
2020 01 17 01  07 00 28.040   +30 04 52.87  .03304 1.0156 165.2 23.1
2020 01 17 02  07 00 27.622   +30 05 22.35  .03305 1.0157 165.1 23.1
2020 01 17 03  07 00 27.207   +30 05 51.78  .03306 1.0157 165.1 23.1
2020 01 17 04  07 00 26.796   +30 06 21.15  .03306 1.0157 165.0 23.1
2020 01 17 05  07 00 26.389   +30 06 50.47  .03307 1.0157 165.0 23.1
2020 01 17 06  07 00 25.985   +30 07 19.72  .03308 1.0157 164.9 23.1
2020 01 17 07  07 00 25.585   +30 07 48.92  .03309 1.0157 164.9 23.1
2020 01 17 08  07 00 25.188   +30 08 18.06  .03309 1.0157 164.9 23.1
2020 01 17 09  07 00 24.795   +30 08 47.14  .03310 1.0157 164.8 23.1
2020 01 17 10  07 00 24.406   +30 09 16.16  .03311 1.0157 164.8 23.1
2020 01 17 11  07 00 24.021   +30 09 45.12  .03312 1.0157 164.7 23.1
2020 01 17 12  07 00 23.639   +30 10 14.02  .03312 1.0157 164.7 23.1
2020 01 17 13  07 00 23.261   +30 10 42.87  .03313 1.0157 164.7 23.1
2020 01 17 14  07 00 22.887   +30 11 11.66  .03314 1.0157 164.6 23.1